Location: Makanda
(37.6176°N, 89.2090°W)
Time: 15:05:17
(UTC+00:00)

Cosmos 2333 Rocket - Pass Details

Date: 23 September 2019
Orbit: 840 x 862 km, 70.8° (Epoch: 17 October)

Event Time Altitude Azimuth Distance (km) Brightness Sun altitude
Rises 01:34:00 0° 323° (NW) 3,425 6.2 -20.4°
Reaches altitude 10° 01:36:53 10° 310° (NW) 2,488 5.6 -20.9°
Maximum altitude 01:41:18 24° 259° (WSW) 1,721 4.4 -21.7°
Drops below altitude 10° 01:45:44 10° 208° (SSW) 2,486 4.7 -22.6°
Sets 01:48:38 0° 194° (SSW) 3,420 5.3 -23.1°
